Find Starlink 32933

NORAD ID: 63082 Int'l Des: 2025-037 Owner: SPXS Country: US Constellation: starlink operational
LEOCIRCULAR

現在のビュー

3D地球を読み込み中...

About Starlink 32933

Starlink 32933 (NORAD 63082) is a starlink constellation satellite (v2 mini) launched Feb 23, 2025 by SPXS of US. It operates in LEO, CIRCULAR orbit with a mass of 730.00 kg.

Starlink 32933について

説明を読み込み中...

次回通過

Passes for default location (London). Set your location on the main map for personalized predictions.

高度履歴

Loading altitude history...

軌道要素

1 63082U 25037F 26176.18584786 .00012059 00000-0 10161-2 0 9993
2 63082 70.0027 83.4274 0002216 260.2804 99.8105 14.98353386 74641
Epoch: Jun 25, 2026 • Age: 8 hours

現在のステータス

高度 579.6 km
速度 7.57 km/s
衛星直下点 45.31°N, 0.02°E
打ち上げ日 Feb 23, 2025
運用期間 1.3 years
タイプ internet

技術仕様

分類 Payload
質量 730.00 kg
乾燥質量 700.00 kg
総質量 730.00 kg
長さ 0.30 m
直径 4.10 m
スパン 29.00 m
形状 Box + pan
製造者 SPXS
バスタイプ Starlink V2M
フェーズステータス In Orbit
所有者/国 SPXS/US

Most Searched